User: anonymous   Login
Location: Unspecified
(0.0000°N, 0.0000°E)
Time: 06:24:25
(UTC+02:00)
Language:

BREEZE-M DEB (TANK) - Orbit

View from above orbital plane
View from above orbital plane
View from above satellite
View from above satellite

Ground track
Ground track

The orbit data is extracted from the following two-line orbital elements,

1 33374U 08044B   18111.26455503 +.00000247 +00000-0 +10282-3 0  9997
2 33374 049.4885 067.3870 5434495 269.6831 031.2012 04.87322858169046
Epoch (UTC): 21 April 2018 06:20:57
Eccentricity: 0.5434495
inclination: 49.4885°
perigee height: 331 km
apogee height: 16304 km
right ascension of ascending node: 67.3870°
argument of perigee: 269.6831°
revolutions per day: 4.87322858
mean anomaly at epoch: 31.2012°
orbit number at epoch: 16904

The dashed part of the orbit path shows where the satellite is in the earth's shadow,  

DLR